Regional Weather Roundup
Issued by NWS

Home | Current Version | Previous Version | Graphics & Text | Print | Product List | Glossary On
Versions: 1 2 3 4 5 6 7 8 9 10 11 12 13 14 15 16 17 18 19 20 21 22 23 24 25 26 27 28 29 30 31 32 33 34 35 36 37 38 39 40 41 42 43 44 45 46 47 48 49 50
000
ASUS43 KMKX 161700
RWRWI

WISCONSIN REGIONAL WEATHER ROUNDUP
NATIONAL WEATHER SERVICE MILWAUKEE/SULLIVAN WI
1200 PM CDT WED AUG 16 2017

NOTE: "FAIR" INDICATES FEW OR NO CLOUDS BELOW 12,000 FEET WITH NO
SIGNIFICANT WEATHER AND/OR OBSTRUCTIONS TO VISIBILITY.

WIZ001-002-006>008-014>016-023>028-161800-
NORTHWEST WISCONSIN

CITY           SKY/WX    TMP DP  RH WIND       PRES   REMARKS
SUPERIOR ARPT    N/A     64  60  89 NE10G17   29.97F
ASHLAND        CLOUDY    69  61  75 N8        29.99F
HAYWARD        CLOUDY    68  59  73 SE6       29.97F
SIREN          CLOUDY    68  62  79 SE9       29.94F
CUMBERLAND     LGT RAIN  63  59  88 SE9       29.96S
RICE LAKE      LGT RAIN  65  62  87 E7        29.96F
CHETEK         LGT RAIN  66  62  85 E10       29.95F
LADYSMITH      MOSUNNY   73  60  63 E9        30.00F
EAU CLAIRE     NOT AVBL
MENOMONIE      PTSUNNY   73  64  71 E8        29.93F
NEW RICHMOND   CLOUDY    67  64  90 SE5       29.92F
OSCEOLA        CLOUDY    69  69  99 SE7       29.94F
$$

WIZ003>005-009-010-017-018-161800-
NORTH CENTRAL WISCONSIN

CITY           SKY/WX    TMP DP  RH WIND       PRES   REMARKS
MANITOWISH WTR SUNNY     69  60  70 S10       30.03F
ARBOR VITAE    SUNNY     72  61  69 S10       30.04F
WOODRUFF       SUNNY     72  61  69 S10       30.04F
RHINELANDER    CLOUDY    71  59  65 VRB7      30.04F
EAGLE RIVER    SUNNY     70  57  63 SE3       30.04F
LAND O LAKES   MOSUNNY   72  56  56 SE6       30.05F
PHILLIPS       CLOUDY    70  59  68 SE10      30.01F
TOMAHAWK         N/A     69  59  70 E3        30.04S
MEDFORD        SUNNY     69  60  73 E9        30.01F
MERRILL        NOT AVBL
$$

WIZ029-030-035-036-043>047-161800-
CENTRAL WISCONSIN

CITY           SKY/WX    TMP DP  RH WIND       PRES   REMARKS
WAUSAU         MOSUNNY   70  58  65 SE9       30.01F
MOSINEE        MOSUNNY   72  61  68 SE10      30.03F
MARSHFIELD     MOSUNNY   73  59  61 SE14      30.00S
STEVENS POINT  PTSUNNY   70  59  68 E7        30.03S
WAUPACA        SUNNY     76  61  58 SE7       30.03S
WAUTOMA        SUNNY     76  59  55 E9        30.01F
WISC RAPIDS    MOSUNNY   76  60  57 E10       30.01F
CAMP DOUGLAS   NOT AVBL
$$

WIZ011>013-019>022-031-037>040-048>050-161800-
NORTHEAST WISCONSIN

CITY           SKY/WX    TMP DP  RH WIND       PRES   REMARKS
ANTIGO         CLOUDY    67  58  73 SE8       30.05F
SHAWANO        CLOUDY    74  59  59 SE6       30.04S
OCONTO         MOSUNNY   71  60  67 E7        30.04S
STURGEON BAY   SUNNY     71  62  73 NE5       30.04F
GREEN BAY      MOSUNNY   73  65  75 NE10      30.02F
MANITOWOC      NOT AVBL
APPLETON       NOT AVBL
CLINTONVILLE   MOSUNNY   72  59  64 SE8       30.03S
OSHKOSH        SUNNY     74  63  68 E8        30.01F
$$

WIZ032>034-041-042-053>061-161800-
SOUTHWEST WISCONSIN

CITY           SKY/WX    TMP DP  RH WIND       PRES   REMARKS
LA CROSSE      SUNNY     81  64  56 E12       29.91F HX  82
SPARTA         PTSUNNY   76  62  62 SE10      29.96F
VIROQUA        SUNNY     75  66  73 E13G18    29.95F
BOSCOBEL       SUNNY     81  65  58 NE7       29.92F HX  83
PRAIRIE DU CHI SUNNY     78  65  64 E9        29.90F HX  80
PLATTEVILLE    SUNNY     77  71  82 E10       29.95F
$$

WIZ056-057-062-063-064-067-068-161800-
SOUTH CENTRAL WISCONSIN

CITY           SKY/WX    TMP DP  RH WIND       PRES   REMARKS
REEDSBURG      CLOUDY    78  62  57 SE7       29.98S HX  80
BARABOO/DELLS  MOSUNNY   78  57  49 E10       29.99S
LONE ROCK      NOT AVBL
MINERAL POINT  SUNNY     79  70  73 E9        29.97F HX  81
MADISON        PTSUNNY   78  65  63 SE10      29.97F HX  80
MIDDLETON      SUNNY     78  62  57 E7        29.99F HX  80
WATERTOWN      MOSUNNY   77  66  68 SE8       30.00S
MONROE         SUNNY     77  64  65 SE8       29.98S
JANESVILLE     MOSUNNY   82  68  61 SE9       29.96F HX  85
$$

WIZ051-052-058>065-066-070>072-161800-
SOUTHEAST WISCONSIN

CITY           SKY/WX    TMP DP  RH WIND       PRES   REMARKS
MILWAUKEE      MOSUNNY   76  64  66 E10       30.01F
WAUKESHA       SUNNY     77  64  65 E9        30.02F
MILWAUKEE/TIMM MOSUNNY   75  61  60 E9        30.02F
RACINE         SUNNY     76  66  71 SE7       30.03S
KENOSHA        SUNNY     78  65  63 SE10      30.01S HX  80
FOND DU LAC    PTSUNNY   77  58  51 VRB3      30.01S
SHEBOYGAN      SUNNY     73  65  75 VRB6      30.03S
WEST BEND      SUNNY     75  63  64 E5        30.02S
JUNEAU         SUNNY     75  63  64 E5        30.02S
$$

LSZ147-162-161800-
LAKE SUPERIOR

STATION/POSITION TIME  TEMP    WIND        PRES    WAVE
                       AIR SEA DIR/SP/G            HT/PER
                 (UTC) (F)     (DEG/KT/KT) (MB)    (FT/S)
W MID LAKE BUOY  1550   60 60  110/  6/  8 1016.6S   1/ 3
DEVILS ISLAND    1600   62      80/  8/  9 1016.4S
PORT WING        1440   65      30/  8/  9 1015.9R
SAXON HARBOR     1630   67      30/  8/ 10 1015.2S
$$

LMZ867-665-643>646-161800-
LAKE MICHIGAN

STATION/POSITION TIME  TEMP    WIND        PRES    WAVE
                       AIR SEA DIR/SP/G            HT/PER
                 (UTC) (F)     (DEG/KT/KT) (MB)    (FT/S)
S GREEN BAY BUOY 1630   67 71   40/ 12/ 12 1017.1F
N MID LAKE BUOY  1550   65 68   60/  8/  8 1018.1F   1
NORTHPORT PIER   1640   67      70/  9/ 10 1017.3F
KEWAUNEE LAKESHO 1630   71      40/  5/  8 1016.2F
SHEBOYGAN LAKESH 1600   67      70/  6/  7 1016.4F
PORT WASHINGTON  1630   72     100/  5/  6 1017.6R
ATWATER BUOY     1509   70 71   70/  6/  8 1016.7F
MILWAUKEE LAKESH 1630   72      90/  6/  7   N/A
S MID LAKE BUOY  1550   71 71   80/  6/  6 1016.4F   1
KENOSHA   LAKESH 1600   71      80/  6/  6 1015.9
$$

TC  - TEMPERATURE IN CELSIUS
VSB - VISIBILITY IN STATUTE MILES
WCI - WIND CHILL INDEX
HX  - HEAT INDEX





USA.gov is the U.S. government's official web portal to all federal, state and local government web resources and services.